TimeMST,TemperatureF,Dew PointF,Humidity,Sea Level PressureIn,VisibilityMPH,Wind Direction,Wind SpeedMPH,Gust SpeedMPH,PrecipitationIn,Events,Conditions,WindDirDegrees,DateUTC
12:53 AM,10.0,8.1,92,30.30,10.0,NW,4.6,-,N/A,,Clear,310,2013-01-25 07:53:00
1:53 AM,7.0,5.0,92,30.29,10.0,Variable,3.5,-,N/A,,Clear,0,2013-01-25 08:53:00
2:53 AM,9.0,6.1,88,30.27,9.0,SE,5.8,-,N/A,,Clear,140,2013-01-25 09:53:00
3:53 AM,7.0,5.0,92,30.26,10.0,Calm,Calm,-,N/A,,Clear,0,2013-01-25 10:53:00
4:53 AM,6.1,3.0,87,30.27,9.0,Calm,Calm,-,N/A,,Clear,0,2013-01-25 11:53:00
5:53 AM,3.9,1.0,88,30.29,10.0,SW,3.5,-,N/A,,Clear,220,2013-01-25 12:53:00
6:53 AM,6.1,3.0,87,30.31,6.0,Calm,Calm,-,N/A,,Clear,0,2013-01-25 13:53:00
7:53 AM,3.9,1.0,88,30.33,10.0,Calm,Calm,-,N/A,,Clear,0,2013-01-25 14:53:00
8:53 AM,10.9,7.0,84,30.32,10.0,Calm,Calm,-,N/A,,Clear,0,2013-01-25 15:53:00
9:53 AM,14.0,12.9,95,30.32,10.0,South,3.5,-,N/A,,Clear,180,2013-01-25 16:53:00
10:53 AM,19.9,15.1,81,30.31,10.0,Calm,Calm,-,N/A,,Clear,0,2013-01-25 17:53:00
11:53 AM,26.1,19.0,75,30.28,10.0,Calm,Calm,-,N/A,,Clear,0,2013-01-25 18:53:00
12:53 PM,28.9,19.9,69,30.24,10.0,SW,3.5,-,N/A,,Clear,220,2013-01-25 19:53:00
1:53 PM,30.9,21.0,67,30.22,10.0,Calm,Calm,-,N/A,,Clear,0,2013-01-25 20:53:00
2:53 PM,35.1,21.9,59,30.18,10.0,Calm,Calm,-,N/A,,Clear,0,2013-01-25 21:53:00
3:53 PM,39.0,23.0,53,30.17,10.0,Calm,Calm,-,N/A,,Clear,0,2013-01-25 22:53:00
4:53 PM,35.1,23.0,61,30.18,10.0,Calm,Calm,-,N/A,,Clear,0,2013-01-25 23:53:00
5:53 PM,32.0,24.1,73,30.19,10.0,Calm,Calm,-,N/A,,Mostly Cloudy,0,2013-01-26 00:53:00
6:53 PM,30.9,24.1,76,30.18,10.0,East,4.6,-,N/A,,Overcast,100,2013-01-26 01:53:00
7:53 PM,30.0,24.1,79,30.18,10.0,SE,3.5,-,N/A,,Overcast,140,2013-01-26 02:53:00
8:53 PM,30.0,24.1,79,30.15,10.0,South,3.5,-,N/A,,Overcast,170,2013-01-26 03:53:00
9:53 PM,25.0,21.0,85,30.16,10.0,Calm,Calm,-,N/A,,Mostly Cloudy,0,2013-01-26 04:53:00
10:53 PM,23.0,19.9,88,30.13,10.0,Calm,Calm,-,N/A,,Clear,0,2013-01-26 05:53:00
11:53 PM,19.9,18.0,92,30.12,10.0,SE,3.5,-,N/A,,Clear,130,2013-01-26 06:53:00